This is the latest recevied weather packets stored in our database for station/object W4MSI. If no packets are shown the sender has not sent any weather packets the latest 10 day(s).
| Time | Temp. | Humidity | Pressure | Rain* | Wind** | Luminosity | Snow |
|---|---|---|---|---|---|---|---|
| 1778029930 | 15.56° C | 92% | 1006.7 hPa | 0 mm | - | 0 W/m² | - |
| 1778029629 | 15.56° C | 91% | 1006.7 hPa | 0 mm | - | 0 W/m² | - |
| 1778029326 | 16.11° C | 91% | 1006.5 hPa | 0 mm | - | 0 W/m² | - |
| 1778029023 | 16.11° C | 91% | 1006.7 hPa | 0 mm | - | 0 W/m² | - |
| 1778028719 | 15.56° C | 92% | 1007.1 hPa | 0 mm | - | 0 W/m² | - |
| 1778028415 | 15.56° C | 91% | 1006.9 hPa | 0 mm | - | 0 W/m² | - |
| 1778028113 | 16.11° C | 91% | 1007 hPa | 0 mm | - | 0 W/m² | - |
| 1778027809 | 15.56° C | 92% | 1007.2 hPa | 0 mm | - | 1 W/m² | - |
| 1778027505 | 15.56° C | 93% | 1007.1 hPa | 0 mm | - | 1 W/m² | - |
| 1778027201 | 15.56° C | 94% | 1007.5 hPa | 0 mm | - | 1 W/m² | - |
| 1778026898 | 15.56° C | 93% | 1007.3 hPa | 0 mm | - | 2 W/m² | - |
| 1778026593 | 15.56° C | 93% | 1007.2 hPa | 0 mm | - | 2 W/m² | - |
| 1778026291 | 15.56° C | 93% | 1007.1 hPa | 0 mm | - | 3 W/m² | - |
| 1778025988 | 15.56° C | 93% | 1007.1 hPa | 0 mm | - | 6 W/m² | - |
| 1778025685 | 15.56° C | 92% | 1007.2 hPa | 0 mm | - | 7 W/m² | - |
| 1778025383 | 15.56° C | 91% | 1007.3 hPa | 0 mm | - | 9 W/m² | - |
| 1778025080 | 15.56° C | 92% | 1007.5 hPa | 0 mm | - | 9 W/m² | - |
| 1778024777 | 15.56° C | 92% | 1007.5 hPa | 0 mm | - | 7 W/m² | - |
| 1778024474 | 15.56° C | 91% | 1007.6 hPa | 0 mm | - | 6 W/m² | - |
| 1778024172 | 16.11° C | 91% | 1007.5 hPa | 0 mm | - | 8 W/m² | - |
| 1778023869 | 16.11° C | 90% | 1007.8 hPa | 0 mm | - | 8 W/m² | - |
| 1778023566 | 16.11° C | 89% | 1007.8 hPa | 1.78 mm | - | 13 W/m² | - |
| 1778023264 | 16.11° C | 87% | 1007.9 hPa | 1.78 mm | - | 11 W/m² | - |
| 1778022960 | 16.67° C | 86% | 1007.9 hPa | 1.78 mm | - | 15 W/m² | - |
| 1778022659 | 16.67° C | 87% | 1008.2 hPa | 6.1 mm | - | 17 W/m² | - |
* Rain latest hour (hover to see other rain measurements)
** Current wind speed in m/s (hover to see current wind gust speed)